Weather History for Albany, GA

Change the Weather History Date:

Thursday, January 23, 2014

  Actual Average Record
Temperature  
Mean Temperature 37 °F 50 °F  
Max Temperature 48 °F 61 °F 80 °F (1937)
Min Temperature 25 °F 38 °F 12 °F (1985)
Degree Days  
Heating Degree Days 28 16  
Month to date heating degree days 450 368  
Since 1 July heating degree days 1076 1081  
Cooling Degree Days 0 0  
Month to date cooling degree days 0 0  
Year to date cooling degree days 0 0  
Moisture  
Dew Point 18 °F    
Average Humidity 50    
Maximum Humidity 75    
Minimum Humidity 25    
Precipitation  
Precipitation 0.00 in 0.20 in 0.12 in (2006)
Month to date precipitation 1.29 3.23  
Year to date precipitation 1.29 3.23  
Sea Level Pressure  
Sea Level Pressure 30.37 in    
Wind  
Wind Speed 3 mph (NW)    
Max Wind Speed 12 mph    
Max Gust Speed 17 mph    
Visibility 10 miles    
Events      
T = Trace of Precipitation, MM = Missing Value Source: NWS Daily Summary

Daily Weather History Graph

Daily Weather History Graph

Search for Another Location

Airport:

Trip Planner

Search our weather history database for the weather conditions in past years. The results will help you decide how hot, cold, wet, or windy it might be!

Date:

Astronomy

Jan. 23, 2014 Rise Set
Actual Time 7:34 AM EST 6:03 PM EST
Civil Twilight 7:08 AM EST 6:29 PM EST
Nautical Twilight 6:38 AM EST 6:58 PM EST
Astronomical Twilight 6:09 AM EST 7:27 PM EST
Moon 12:06 AM EST (1/23) 11:37 AM EST (1/23)
Length of Visible Light 11h 20m
Length of Day
10h 29m
Waning Gibbous, 55% of the Moon is Illuminated
Jan 23
Waning Gibbous
Jan 24
Last Quarter
Jan 30
New
Feb 6
First Quarter
Feb 14
Full

Hourly Weather History & Observations

Time (EST) Temp. Windchill Dew Point Humidity Pressure Visibility Wind Dir Wind Speed Gust Speed Precip Events Conditions
12:53 AM 27.0 °F - 19.0 °F 72% 30.24 in 10.0 mi Calm Calm - N/A   Clear
1:53 AM 28.0 °F - 21.0 °F 75% 30.25 in 10.0 mi Calm Calm - N/A   Clear
2:53 AM 28.0 °F - 21.9 °F 78% 30.26 in 9.0 mi Calm Calm - N/A   Clear
3:53 AM 28.0 °F - 21.0 °F 75% 30.27 in 10.0 mi Calm Calm - N/A   Clear
4:53 AM 28.0 °F - 21.0 °F 75% 30.30 in 10.0 mi Calm Calm - N/A   Clear
5:53 AM 27.0 °F - 19.0 °F 72% 30.31 in 10.0 mi Calm Calm - N/A   Clear
6:53 AM 28.0 °F - 19.9 °F 72% 30.34 in 10.0 mi Calm Calm - N/A   Clear
7:53 AM 28.9 °F - 19.9 °F 69% 30.36 in 10.0 mi Calm Calm - N/A   Clear
8:53 AM 32.0 °F - 19.0 °F 59% 30.39 in 10.0 mi Calm Calm - N/A   Clear
9:53 AM 37.0 °F 31.6 °F 12.9 °F 37% 30.42 in 10.0 mi Variable 6.9 mph - N/A   Clear
10:53 AM 39.9 °F 33.9 °F 14.0 °F 35% 30.43 in 10.0 mi NNE 9.2 mph - N/A   Clear
11:53 AM 42.1 °F 37.7 °F 14.0 °F 32% 30.43 in 10.0 mi NW 6.9 mph - N/A   Clear
12:53 PM 43.0 °F 39.5 °F 14.0 °F 31% 30.40 in 10.0 mi Variable 5.8 mph - N/A   Clear
1:53 PM 46.0 °F 43.1 °F 14.0 °F 28% 30.38 in 10.0 mi NNW 5.8 mph - N/A   Clear
2:53 PM 46.0 °F 41.9 °F 14.0 °F 28% 30.37 in 10.0 mi NW 8.1 mph - N/A   Clear
3:53 PM 46.9 °F - 12.9 °F 25% 30.37 in 10.0 mi Variable 6.9 mph - N/A   Clear
4:53 PM 46.0 °F 44.8 °F 15.1 °F 29% 30.39 in 10.0 mi West 3.5 mph - N/A   Clear
5:53 PM 45.0 °F 43.5 °F 17.1 °F 33% 30.39 in 10.0 mi WSW 3.5 mph - N/A   Clear
6:53 PM 39.0 °F - 23.0 °F 53% 30.40 in 10.0 mi Calm Calm - N/A   Clear
7:53 PM 36.0 °F - 24.1 °F 62% 30.42 in 10.0 mi Calm Calm - N/A   Clear
8:53 PM 34.0 °F 29.8 °F 23.0 °F 64% 30.44 in 10.0 mi NW 4.6 mph - N/A   Clear
9:53 PM 36.0 °F 33.3 °F 19.0 °F 50% 30.46 in 10.0 mi NNW 3.5 mph - N/A   Clear
10:53 PM 36.0 °F 30.3 °F 17.1 °F 46% 30.46 in 10.0 mi NNW 6.9 mph - N/A   Clear
11:53 PM 37.0 °F 30.4 °F 14.0 °F 39% 30.49 in 10.0 mi North 9.2 mph - N/A   Mostly Cloudy